Temp
-27 -27 -26 -25 -24 -24 -24 -23 -23 -21 -21 -19 -18 -16 -16 -16 -16 -15 -15 -15 -15 -15 -15 -15 -15 -14 -14 -15 -15 -15 -15 -15 -15 -15 -15 -15 -14 -15 -15 -15 -15 -16 -16 -16 -16 -17 -17 -17 -18 -19 -20 -21 -22 -23
-27 -26 -25 -24 -24 -24 -25 -24 -23 -20 -20 -19 -17 -17 -17 -16 -16 -16 -15 -16 -15 -15 -15 -15 -15 -15 -14 -15 -15 -15 -15 -15 -16 -16 -15 -15 -15 -15 -16 -16 -16 -16 -16 -16 -17 -18 -18 -18 -19 -20 -21 -23 -24 -25
-26 -26 -25 -25 -24 -24 -24 -23 -22 -20 -20 -19 -18 -17 -16 -16 -16 -15 -16 -15 -15 -15 -15 -15 -15 -14 -15 -15 -15 -15 -15 -15 -15 -16 -16 -16 -16 -16 -16 -16 -16 -16 -16 -17 -18 -19 -19 -20 -21 -22 -23 -24 -25 -26
-26 -25 -25 -25 -25 -24 -23 -23 -22 -20 -19 -18 -17 -16 -16 -16 -15 -15 -15 -15 -15 -15 -15 -15 -15 -14 -15 -15 -15 -15 -15 -15 -16 -16 -16 -16 -16 -16 -16 -17 -17 -16 -17 -18 -20 -21 -21 -22 -23 -24 -25 -25 -26 -27
-26 -26 -26 -26 -25 -24 -23 -22 -20 -19 -19 -18 -17 -16 -16 -15 -15 -15 -15 -15 -15 -15 -15 -15 -15 -15 -15 -15 -15 -15 -16 -16 -16 -16 -16 -16 -16 -17 -17 -17 -17 -18 -19 -20 -20 -21 -23 -24 -25 -26 -26 -27 -27 -27
-27 -27 -27 -27 -26 -24 -23 -22 -20 -19 -19 -18 -17 -17 -17 -16 -16 -15 -15 -15 -15 -15 -15 -15 -15 -15 -15 -15 -16 -16 -16 -16 -16 -16 -16 -17 -17 -17 -18 -19 -19 -19 -20 -21 -22 -22 -23 -25 -25 -26 -26 -27 -27 -27
-27 -27 -27 -26 -25 -23 -21 -19 -19 -19 -20 -19 -18 -17 -16 -16 -16 -16 -15 -15 -15 -15 -15 -15 -15 -15 -16 -16 -16 -16 -16 -16 -17 -17 -17 -17 -18 -18 -19 -20 -20 -21 -22 -22 -23 -24 -25 -25 -25 -26 -27 -27 -28 -28
-27 -27 -26 -24 -23 -22 -20 -20 -19 -18 -18 -18 -16 -16 -16 -16 -16 -16 -16 -15 -16 -15 -15 -15 -16 -16 -16 -16 -16 -16 -17 -17 -17 -17 -18 -18 -18 -19 -19 -21 -21 -22 -23 -24 -24 -25 -25 -26 -27 -27 -28 -28 -28 -29
-26 -24 -24 -22 -22 -20 -20 -19 -18 -17 -17 -17 -16 -16 -16 -16 -16 -16 -16 -16 -16 -16 -16 -17 -17 -17 -17 -17 -17 -17 -17 -17 -18 -18 -18 -19 -19 -20 -21 -22 -22 -23 -24 -24 -25 -25 -26 -26 -27 -28 -28 -29 -29 -30
-23 -22 -21 -21 -20 -20 -19 -18 -18 -18 -17 -16 -17 -16 -17 -17 -17 -17 -17 -17 -17 -17 -17 -16 -16 -16 -17 -17 -17 -17 -18 -18 -18 -19 -20 -21 -21 -22 -22 -23 -24 -24 -25 -25 -25 -26 -26 -27 -28 -28 -29 -30 -30 -31
-21 -21 -20 -19 -19 -19 -19 -18 -17 -17 -17 -17 -17 -17 -17 -17 -17 -17 -17 -17 -17 -17 -17 -17 -17 -17 -17 -17 -17 -18 -18 -19 -20 -20 -21 -22 -22 -23 -23 -23 -24 -24 -25 -26 -27 -27 -28 -28 -29 -30 -30 -31 -31 -32
-20 -20 -20 -20 -19 -18 -18 -18 -17 -17 -17 -17 -17 -17 -17 -17 -17 -17 -17 -17 -16 -16 -16 -16 -17 -17 -17 -18 -18 -19 -20 -20 -21 -21 -22 -22 -23 -23 -23 -24 -25 -26 -26 -26 -26 -27 -28 -29 -30 -31 -32 -32 -33 -33
-20 -20 -20 -19 -18 -18 -18 -17 -17 -17 -17 -17 -18 -18 -17 -17 -17 -17 -17 -16 -17 -17 -17 -17 -17 -18 -19 -19 -20 -20 -21 -21 -21 -22 -22 -23 -23 -24 -25 -25 -26 -26 -26 -26 -27 -27 -28 -30 -31 -32 -32 -33 -33 -33
-19 -19 -19 -18 -18 -18 -18 -18 -17 -18 -18 -18 -18 -17 -18 -17 -17 -17 -17 -17 -17 -17 -17 -18 -19 -19 -19 -20 -20 -21 -21 -21 -22 -22 -23 -24 -24 -25 -25 -25 -25 -25 -26 -26 -27 -28 -29 -31 -32 -33 -33 -34 -34 -34
-19 -18 -18 -18 -18 -18 -18 -18 -18 -18 -18 -18 -18 -18 -17 -17 -17 -17 -17 -18 -18 -18 -19 -19 -20 -20 -20 -20 -21 -21 -21 -22 -22 -23 -23 -24 -24 -25 -25 -25 -25 -25 -26 -26 -27 -28 -29 -31 -32 -32 -33 -34 -34 -34
-19 -19 -19 -19 -19 -19 -18 -18 -18 -18 -18 -18 -18 -17 -17 -18 -18 -18 -19 -19 -19 -20 -20 -20 -19 -20 -20 -21 -21 -22 -22 -22 -23 -23 -24 -24 -24 -24 -24 -25 -25 -25 -26 -26 -26 -28 -30 -31 -32 -33 -34 -34 -35 -35
-19 -19 -19 -19 -19 -19 -19 -19 -18 -18 -17 -17 -17 -18 -18 -18 -19 -19 -19 -19 -20 -20 -20 -20 -21 -21 -21 -21 -22 -22 -22 -23 -23 -23 -23 -24 -24 -24 -24 -25 -25 -26 -26 -26 -27 -29 -30 -31 -32 -33 -33 -34 -35 -35
-19 -20 -19 -18 -18 -18 -18 -18 -18 -18 -18 -18 -19 -19 -19 -19 -19 -19 -19 -20 -20 -20 -20 -20 -21 -21 -21 -21 -21 -22 -22 -23 -23 -23 -23 -24 -24 -24 -25 -25 -25 -26 -26 -26 -28 -29 -31 -32 -33 -34 -34 -34 -35 -35
-20 -20 -19 -20 -20 -19 -19 -19 -19 -19 -19 -19 -20 -19 -20 -20 -20 -20 -20 -20 -20 -20 -20 -20 -20 -21 -21 -21 -21 -22 -22 -23 -23 -23 -24 -24 -25 -25 -25 -25 -26 -26 -26 -28 -29 -30 -32 -33 -33 -34 -34 -35 -35 -35
-21 -21 -20 -20 -20 -19 -19 -19 -20 -20 -20 -20 -20 -20 -20 -20 -20 -20 -20 -20 -20 -20 -19 -20 -20 -20 -21 -21 -22 -22 -22 -23 -23 -24 -24 -25 -25 -25 -26 -26 -26 -26 -27 -28 -29 -30 -32 -34 -34 -35 -35 -36 -36 -37
-20 -20 -20 -20 -20 -20 -20 -20 -20 -20 -20 -20 -20 -20 -20 -19 -19 -19 -19 -20 -19 -19 -20 -20 -20 -21 -21 -22 -22 -22 -23 -23 -24 -24 -25 -25 -25 -26 -26 -26 -27 -27 -28 -29 -30 -31 -32 -34 -34 -35 -36 -36 -36 -37
-20 -20 -20 -20 -20 -19 -19 -19 -19 -19 -19 -19 -19 -19 -19 -19 -19 -19 -19 -19 -19 -19 -20 -20 -21 -21 -22 -22 -22 -23 -23 -24 -24 -25 -25 -25 -26 -26 -26 -27 -27 -27 -28 -30 -30 -31 -32 -34 -34 -35 -36 -36 -37 -37
-20 -19 -19 -19 -19 -19 -19 -19 -19 -19 -18 -18 -18 -18 -19 -19 -19 -19 -19 -19 -20 -20 -20 -21 -21 -22 -22 -22 -23 -23 -24 -24 -25 -25 -25 -26 -26 -26 -27 -27 -27 -27 -29 -30 -31 -31 -32 -33 -34 -35 -36 -36 -37 -37
-19 -19 -19 -19 -19 -19 -18 -18 -18 -18 -18 -19 -19 -19 -19 -19 -19 -20 -20 -20 -20 -20 -21 -21 -22 -22 -23 -23 -23 -24 -24 -25 -25 -25 -26 -26 -26 -27 -27 -27 -27 -28 -29 -30 -31 -31 -32 -33 -34 -35 -35 -36 -36 -36
-19 -19 -18 -18 -18 -18 -18 -18 -18 -19 -19 -19 -19 -19 -19 -20 -20 -20 -20 -20 -21 -21 -21 -22 -22 -23 -23 -23 -24 -24 -25 -25 -25 -25 -26 -26 -27 -27 -27 -28 -28 -28 -28 -30 -31 -31 -32 -32 -33 -33 -34 -35 -36 -36
-19 -19 -19 -18 -18 -18 -18 -18 -19 -19 -19 -19 -19 -19 -20 -20 -20 -21 -21 -21 -22 -22 -22 -23 -23 -23 -24 -24 -24 -25 -25 -25 -25 -26 -26 -27 -27 -27 -28 -28 -28 -28 -28 -29 -31 -32 -32 -32 -33 -33 -34 -34 -35 -36
-19 -19 -19 -19 -19 -19 -19 -19 -19 -19 -19 -19 -20 -20 -20 -20 -21 -21 -21 -21 -22 -22 -22 -23 -23 -24 -24 -25 -25 -25 -25 -25 -26 -26 -27 -27 -27 -28 -28 -28 -28 -28 -28 -29 -30 -31 -32 -32 -33 -33 -34 -34 -34 -35
-19 -19 -19 -19 -19 -19 -19 -19 -19 -19 -19 -20 -20 -20 -20 -21 -21 -21 -22 -22 -22 -23 -23 -23 -23 -24 -25 -25 -25 -25 -25 -26 -26 -26 -27 -27 -28 -28 -28 -28 -28 -29 -29 -29 -29 -30 -32 -32 -33 -33 -34 -34 -34 -35
-19 -19 -19 -19 -19 -20 -20 -20 -20 -20 -20 -20 -20 -21 -21 -21 -22 -22 -22 -22 -22 -23 -23 -23 -24 -24 -25 -25 -25 -26 -26 -26 -26 -27 -27 -27 -28 -28 -28 -29 -29 -29 -29 -29 -29 -30 -31 -32 -33 -33 -33 -34 -34 -34
-19 -19 -19 -19 -20 -20 -20 -20 -20 -20 -20 -21 -21 -21 -21 -21 -22 -22 -22 -22 -22 -22 -23 -24 -24 -25 -25 -25 -26 -26 -26 -26 -27 -27 -27 -27 -28 -28 -29 -29 -29 -29 -29 -29 -30 -30 -30 -31 -31 -32 -33 -34 -34 -34
-20 -20 -20 -20 -20 -20 -20 -20 -20 -20 -20 -20 -20 -20 -20 -21 -21 -22 -22 -22 -22 -23 -23 -23 -24 -25 -25 -26 -26 -26 -26 -26 -27 -27 -27 -27 -28 -28 -29 -29 -29 -29 -29 -30 -30 -30 -30 -30 -31 -31 -32 -33 -34 -34
-20 -20 -20 -20 -20 -20 -20 -20 -20 -20 -20 -20 -20 -21 -21 -21 -22 -22 -22 -22 -22 -23 -23 -24 -24 -25 -25 -26 -26 -26 -26 -27 -27 -27 -27 -28 -28 -28 -29 -29 -29 -29 -30 -30 -30 -30 -30 -30 -31 -31 -31 -32 -32 -33
-20 -20 -20 -20 -20 -20 -20 -20 -21 -20 -21 -21 -21 -21 -21 -22 -22 -22 -22 -23 -23 -23 -24 -24 -24 -25 -26 -26 -26 -26 -27 -27 -27 -27 -28 -28 -28 -29 -29 -29 -29 -29 -30 -30 -30 -30 -30 -31 -31 -31 -31 -31 -32 -32
Height
5266 5279 5294 5309 5321 5332 5343 5355 5372 5394 5417 5437 5458 5477 5498 5515 5530 5540 5551 5560 5569 5576 5583 5589 5594 5600 5604 5608 5612 5615 5615 5616 5616 5616 5617 5616 5615 5615 5612 5610 5608 5605 5599 5595 5588 5579 5576 5570 5561 5557 5548 5540 5535 5529
5266 5278 5292 5304 5317 5327 5341 5356 5371 5391 5415 5435 5456 5475 5494 5509 5522 5535 5544 5552 5560 5568 5573 5580 5584 5589 5596 5600 5602 5604 5605 5606 5606 5605 5607 5606 5605 5603 5601 5598 5596 5590 5586 5580 5574 5566 5559 5552 5547 5541 5535 5529 5522 5518
5267 5278 5290 5301 5311 5325 5339 5355 5372 5391 5412 5433 5454 5470 5487 5504 5518 5529 5538 5547 5555 5560 5566 5570 5575 5581 5585 5589 5592 5594 5595 5596 5595 5596 5596 5595 5594 5593 5590 5586 5581 5576 5570 5565 5558 5551 5545 5540 5534 5527 5522 5519 5513 5510
5267 5277 5288 5298 5308 5321 5336 5354 5373 5390 5414 5433 5450 5466 5481 5498 5513 5523 5533 5540 5548 5554 5559 5562 5568 5572 5576 5580 5582 5583 5585 5586 5587 5586 5586 5585 5584 5581 5576 5572 5567 5562 5555 5550 5546 5537 5532 5527 5521 5516 5512 5508 5504 5500
5266 5276 5286 5296 5308 5321 5338 5357 5372 5392 5410 5429 5446 5463 5482 5498 5509 5519 5528 5535 5541 5548 5551 5555 5560 5564 5567 5570 5573 5575 5577 5578 5578 5577 5576 5574 5571 5568 5562 5556 5551 5547 5543 5538 5532 5526 5520 5515 5508 5503 5500 5496 5492 5489
5266 5276 5286 5296 5309 5322 5340 5359 5379 5398 5419 5435 5450 5467 5482 5495 5507 5515 5519 5527 5534 5541 5545 5548 5552 5556 5560 5562 5565 5566 5568 5569 5569 5568 5565 5562 5559 5556 5550 5542 5537 5536 5531 5524 5520 5514 5509 5502 5498 5492 5488 5484 5479 5475
5268 5278 5289 5299 5312 5329 5347 5366 5387 5405 5423 5439 5455 5469 5482 5492 5500 5508 5518 5526 5531 5535 5539 5542 5544 5549 5552 5555 5557 5559 5560 5560 5559 5557 5554 5550 5547 5545 5538 5533 5529 5523 5519 5513 5506 5502 5497 5489 5487 5481 5475 5469 5464 5460
5271 5281 5292 5305 5320 5337 5355 5376 5394 5408 5426 5442 5458 5469 5479 5488 5498 5505 5512 5519 5523 5527 5532 5534 5538 5543 5546 5549 5551 5552 5551 5550 5549 5546 5543 5540 5537 5533 5529 5523 5518 5514 5508 5501 5496 5490 5486 5479 5472 5466 5460 5454 5449 5444
5276 5289 5300 5314 5329 5346 5365 5379 5393 5412 5429 5445 5458 5469 5477 5484 5492 5499 5505 5512 5516 5523 5525 5530 5534 5537 5539 5541 5542 5542 5541 5541 5540 5537 5534 5530 5524 5521 5518 5514 5510 5505 5499 5492 5485 5479 5471 5465 5458 5451 5445 5439 5433 5428
5288 5300 5313 5328 5341 5356 5372 5388 5403 5417 5433 5445 5457 5466 5473 5481 5487 5494 5500 5507 5512 5517 5521 5524 5527 5531 5533 5533 5533 5535 5534 5533 5530 5527 5522 5519 5516 5512 5508 5504 5499 5493 5488 5481 5473 5465 5458 5451 5443 5436 5428 5422 5416 5411
5301 5314 5328 5341 5356 5370 5383 5395 5410 5425 5438 5449 5458 5466 5472 5478 5485 5493 5498 5504 5508 5512 5516 5519 5522 5524 5524 5526 5526 5526 5524 5522 5520 5519 5516 5511 5507 5504 5499 5494 5489 5484 5476 5468 5460 5452 5443 5434 5425 5418 5412 5405 5398 5392
5316 5326 5339 5353 5365 5376 5391 5406 5421 5433 5443 5451 5460 5466 5472 5478 5486 5492 5495 5501 5504 5508 5511 5512 5515 5516 5517 5517 5517 5517 5516 5515 5514 5511 5508 5503 5500 5496 5491 5486 5479 5471 5463 5456 5445 5434 5424 5414 5405 5397 5390 5383 5377 5371
5328 5340 5354 5365 5377 5390 5402 5414 5425 5435 5442 5450 5459 5465 5470 5478 5485 5489 5493 5497 5500 5502 5504 5506 5508 5509 5508 5511 5512 5511 5509 5509 5506 5503 5500 5498 5492 5486 5481 5474 5467 5459 5449 5438 5427 5416 5405 5395 5385 5376 5368 5360 5355 5349
5345 5358 5367 5376 5386 5398 5409 5420 5430 5438 5446 5452 5459 5466 5473 5479 5483 5487 5489 5492 5494 5495 5497 5498 5501 5504 5505 5506 5506 5506 5504 5503 5500 5498 5494 5488 5482 5477 5471 5464 5454 5445 5435 5423 5412 5399 5386 5375 5365 5354 5345 5336 5329 5324
5362 5371 5377 5386 5397 5407 5416 5425 5433 5442 5447 5453 5460 5467 5472 5475 5478 5481 5483 5486 5488 5491 5494 5495 5498 5500 5501 5502 5502 5501 5499 5496 5491 5488 5485 5480 5474 5468 5460 5452 5442 5433 5422 5409 5395 5381 5368 5356 5344 5333 5324 5315 5308 5301
5376 5383 5391 5399 5406 5414 5421 5427 5435 5442 5448 5455 5461 5464 5468 5472 5476 5479 5481 5484 5489 5490 5490 5492 5493 5495 5498 5497 5496 5493 5491 5489 5485 5479 5474 5470 5465 5458 5451 5443 5432 5421 5409 5395 5380 5364 5350 5337 5326 5314 5305 5297 5291 5284
5390 5396 5402 5407 5413 5419 5426 5434 5439 5446 5451 5454 5459 5464 5468 5472 5474 5477 5480 5484 5483 5487 5489 5491 5492 5491 5490 5489 5489 5487 5484 5480 5477 5472 5468 5464 5458 5452 5444 5434 5424 5413 5398 5382 5365 5350 5336 5322 5312 5303 5294 5286 5278 5272
5394 5403 5409 5415 5421 5426 5431 5436 5442 5447 5452 5455 5460 5465 5469 5471 5474 5477 5480 5484 5484 5485 5488 5488 5486 5486 5485 5484 5481 5480 5477 5474 5472 5468 5463 5458 5452 5444 5436 5427 5415 5401 5386 5370 5354 5339 5326 5314 5305 5296 5287 5279 5272 5266
5399 5405 5410 5415 5422 5427 5432 5437 5444 5448 5452 5457 5462 5464 5468 5471 5470 5474 5476 5479 5482 5482 5482 5481 5482 5480 5480 5479 5477 5475 5472 5470 5467 5462 5457 5451 5445 5438 5429 5418 5405 5391 5376 5361 5347 5332 5319 5308 5299 5290 5282 5275 5268 5262
5407 5414 5419 5423 5428 5432 5436 5441 5445 5451 5453 5456 5459 5465 5467 5466 5468 5471 5475 5477 5476 5476 5478 5478 5477 5477 5477 5476 5473 5471 5468 5465 5461 5456 5451 5446 5439 5431 5421 5411 5398 5385 5370 5355 5342 5327 5314 5304 5295 5286 5279 5272 5266 5260
5413 5417 5422 5426 5429 5434 5439 5444 5448 5450 5454 5457 5459 5460 5462 5465 5469 5471 5472 5473 5475 5475 5475 5476 5476 5475 5473 5471 5469 5467 5463 5460 5455 5450 5445 5439 5432 5424 5415 5405 5393 5379 5364 5351 5338 5324 5313 5303 5294 5286 5279 5272 5266 5260
5416 5420 5424 5429 5434 5439 5442 5447 5450 5453 5455 5458 5460 5461 5463 5465 5467 5470 5471 5473 5474 5474 5474 5474 5472 5471 5469 5468 5465 5462 5458 5454 5450 5445 5439 5433 5426 5419 5410 5400 5388 5374 5360 5348 5336 5324 5313 5302 5293 5285 5278 5271 5265 5259
5423 5427 5431 5434 5438 5441 5445 5446 5450 5452 5455 5458 5460 5463 5465 5467 5468 5470 5471 5472 5471 5471 5470 5469 5468 5467 5465 5462 5459 5456 5452 5448 5444 5439 5433 5427 5420 5413 5405 5395 5383 5370 5357 5346 5336 5325 5314 5304 5295 5287 5279 5272 5265 5258
5427 5431 5434 5437 5440 5443 5446 5449 5452 5455 5457 5459 5461 5463 5464 5466 5466 5467 5467 5467 5467 5466 5465 5464 5462 5461 5459 5456 5453 5450 5446 5442 5437 5432 5427 5421 5414 5407 5400 5390 5379 5367 5355 5344 5335 5326 5316 5306 5297 5288 5280 5272 5265 5258
5431 5434 5437 5439 5442 5445 5448 5450 5453 5455 5457 5459 5460 5461 5462 5463 5463 5463 5463 5463 5462 5461 5460 5458 5457 5455 5452 5449 5446 5442 5439 5435 5430 5426 5420 5415 5409 5402 5394 5385 5376 5365 5353 5343 5334 5325 5317 5308 5299 5290 5281 5273 5265 5258
5432 5435 5439 5440 5443 5446 5447 5450 5452 5453 5455 5456 5457 5458 5459 5459 5459 5459 5458 5458 5457 5455 5454 5452 5450 5447 5445 5441 5438 5435 5432 5428 5423 5419 5414 5408 5402 5396 5390 5382 5373 5363 5351 5341 5331 5323 5316 5308 5300 5291 5283 5274 5266 5259
5433 5435 5438 5440 5442 5444 5445 5447 5448 5450 5451 5452 5453 5454 5454 5455 5454 5453 5452 5451 5450 5448 5446 5444 5442 5440 5437 5434 5431 5427 5424 5420 5416 5412 5407 5402 5396 5391 5385 5378 5370 5361 5351 5340 5330 5321 5314 5307 5300 5293 5285 5277 5270 5262
5432 5434 5436 5438 5439 5440 5442 5443 5444 5445 5446 5447 5447 5447 5448 5448 5447 5446 5446 5444 5442 5440 5438 5435 5433 5431 5428 5425 5423 5420 5416 5413 5409 5405 5400 5395 5390 5385 5379 5373 5366 5359 5350 5340 5331 5322 5314 5307 5300 5293 5286 5279 5272 5265
5429 5430 5432 5433 5435 5436 5437 5438 5439 5439 5440 5440 5440 5440 5440 5439 5439 5438 5437 5435 5433 5431 5429 5427 5425 5423 5419 5417 5414 5412 5409 5406 5402 5398 5394 5389 5384 5380 5374 5369 5363 5357 5349 5341 5332 5323 5314 5306 5300 5293 5287 5281 5274 5268
5424 5426 5427 5428 5430 5430 5431 5432 5431 5431 5432 5431 5431 5431 5431 5430 5429 5428 5427 5426 5424 5423 5420 5417 5415 5414 5411 5409 5407 5404 5402 5398 5395 5392 5388 5384 5379 5374 5369 5365 5360 5354 5348 5341 5333 5325 5317 5308 5301 5293 5287 5281 5275 5269
5417 5419 5420 5421 5422 5423 5423 5424 5424 5424 5424 5423 5423 5422 5421 5420 5420 5419 5418 5417 5416 5413 5411 5408 5407 5405 5403 5401 5399 5397 5394 5392 5388 5385 5382 5378 5373 5368 5365 5360 5356 5351 5345 5340 5333 5326 5318 5310 5303 5295 5287 5281 5274 5269
5411 5412 5413 5414 5415 5415 5415 5415 5416 5416 5417 5417 5416 5415 5413 5413 5412 5411 5409 5408 5407 5404 5402 5400 5398 5396 5395 5393 5391 5389 5387 5384 5382 5379 5375 5371 5366 5362 5359 5355 5351 5347 5342 5337 5331 5325 5318 5311 5304 5297 5289 5282 5275 5268
5403 5405 5406 5407 5407 5408 5408 5408 5408 5409 5408 5408 5407 5406 5405 5405 5404 5403 5400 5398 5397 5395 5393 5391 5389 5388 5387 5386 5384 5382 5379 5377 5374 5371 5367 5363 5360 5356 5353 5350 5346 5342 5338 5333 5328 5323 5318 5311 5305 5298 5292 5285 5278 5271
Wind_Speed
50 51 56 49 41 43 51 62 87 79 69 74 81 93 72 65 72 70 58 51 48 43 48 40 29 28 30 29 32 32 29 28 27 30 35 39 42 42 45 46 48 50 52 54 58 62 63 64 63 61 61 57 51 43
47 52 50 44 42 47 56 72 77 79 61 72 81 77 74 65 75 68 65 58 55 51 45 47 33 34 38 37 33 30 33 24 28 33 37 38 40 43 44 48 47 50 52 57 58 58 60 63 60 59 53 44 40 37
48 47 44 46 46 51 68 72 84 77 62 77 82 84 81 69 63 54 58 57 58 59 39 35 37 38 34 32 35 31 31 31 32 38 41 40 43 43 46 46 49 54 57 57 56 54 60 60 50 47 43 39 36 36
44 45 49 50 50 54 69 74 81 76 66 71 78 82 79 59 51 42 44 54 51 36 34 38 37 35 29 29 32 38 41 36 37 38 40 43 44 46 46 49 52 57 56 53 52 54 55 46 44 42 39 38 36 37
46 48 50 49 49 58 73 80 78 83 74 72 79 86 77 57 47 38 40 42 35 34 39 41 40 39 36 38 40 38 38 38 38 38 40 42 44 45 48 51 53 53 53 51 49 47 45 42 42 41 41 40 41 41
43 44 42 48 54 64 74 77 74 67 68 66 69 74 74 47 47 39 42 43 41 36 32 33 27 32 33 35 38 37 35 33 37 39 39 41 44 46 46 46 51 52 48 45 44 45 43 43 43 44 45 45 45 45
35 39 49 51 57 75 81 75 67 66 59 55 44 39 45 48 46 45 42 36 32 33 35 36 38 39 35 32 32 32 34 33 34 36 39 41 42 43 44 46 44 42 42 42 43 44 43 45 45 46 47 47 48 48
37 47 44 54 72 81 78 76 69 61 55 47 52 51 47 40 39 39 40 39 36 38 42 38 36 30 27 27 28 29 30 33 35 36 37 39 42 44 41 39 39 40 41 42 43 44 44 45 45 46 46 47 49 50
41 51 63 72 69 76 79 71 71 61 59 56 52 43 30 35 37 35 34 36 32 25 20 19 20 21 22 23 25 27 29 31 33 33 37 38 37 36 36 38 39 38 39 41 44 46 47 49 51 50 50 50 49 49
66 65 66 65 70 69 69 65 60 49 43 44 40 38 32 29 32 31 29 26 24 20 21 20 19 19 19 20 23 26 27 30 32 30 30 30 32 31 33 34 36 38 41 44 46 49 52 53 54 54 54 54 53 53
68 68 72 76 80 73 65 60 54 50 47 45 44 32 34 33 30 24 18 16 17 14 12 13 15 17 18 20 22 25 27 25 24 26 26 26 27 29 31 35 38 41 43 46 49 52 55 56 56 53 51 54 56 58
72 76 80 79 69 75 60 55 52 50 48 44 40 36 27 22 18 14 12 10 12 12 13 13 14 15 17 20 20 19 20 21 21 22 22 24 27 30 33 36 39 42 46 51 56 61 63 62 60 58 56 55 55 59
75 79 71 53 63 58 52 46 42 45 39 37 30 25 22 16 15 12 10 10 11 11 11 12 15 14 14 15 17 15 15 16 17 19 22 24 27 30 34 38 43 48 53 59 65 69 69 66 64 63 61 60 58 58
69 56 43 52 51 45 42 42 40 32 30 28 24 26 15 13 11 10 11 11 10 11 13 11 11 12 13 12 11 12 12 13 16 18 21 24 28 33 37 42 48 54 59 66 71 73 71 67 65 64 64 64 63 62
48 48 45 49 45 38 34 36 32 26 28 28 25 13 11 12 12 12 11 11 10 10 11 9 9 8 7 7 7 9 12 14 17 20 23 27 32 37 43 49 54 60 65 71 75 75 70 64 62 59 57 57 56 55
35 34 46 38 36 40 41 36 30 27 20 16 14 11 13 14 15 15 12 12 12 11 7 6 5 4 5 4 7 9 13 16 18 22 27 32 37 42 47 53 58 64 69 73 76 71 67 62 56 52 50 48 46 45
41 38 37 33 29 24 25 24 21 18 18 18 17 17 15 15 15 13 11 11 11 10 9 8 5 2 3 6 9 15 18 21 23 27 31 36 40 44 49 55 60 65 70 73 71 67 64 56 48 44 41 39 37 35
32 30 30 29 28 26 24 24 23 24 24 22 20 19 18 18 18 18 17 15 13 10 4 2 3 6 9 12 17 20 23 25 27 31 35 38 41 46 51 56 61 67 70 70 64 63 57 48 44 41 37 34 31 29
35 30 29 30 29 29 27 26 25 23 23 23 22 24 25 25 21 16 13 11 9 7 5 9 10 13 15 19 21 24 26 28 31 34 36 39 42 46 51 57 62 67 68 63 60 58 50 45 42 37 33 30 28 27
36 33 30 30 29 29 27 25 26 26 28 28 26 24 20 17 15 13 10 8 8 7 8 11 13 16 18 20 22 25 27 29 32 35 38 40 43 47 51 56 61 64 62 57 56 53 47 42 39 35 32 29 26 25
30 30 28 27 26 26 27 28 29 28 24 21 19 17 14 12 10 8 7 6 6 8 11 13 15 17 19 21 23 26 28 30 32 35 38 40 42 46 50 54 59 61 57 52 52 50 45 40 37 34 31 29 28 27
27 28 28 29 29 29 28 26 23 21 19 17 15 12 9 7 4 2 3 5 8 11 14 16 17 18 21 23 25 27 28 30 32 35 38 40 41 44 48 52 56 57 51 47 48 48 45 41 38 35 32 31 30 29
30 30 29 27 25 23 21 20 18 16 14 11 9 7 5 3 2 5 7 10 12 14 17 18 19 21 23 25 27 28 30 31 33 35 37 39 40 43 46 50 53 54 48 43 43 44 44 41 38 36 34 32 31 30
25 24 24 23 22 20 19 17 14 13 11 9 6 5 4 5 7 9 11 13 17 18 19 21 23 24 26 27 28 28 29 31 33 35 37 38 38 40 43 47 50 52 47 40 39 40 41 41 40 37 36 35 34 33
22 21 20 20 18 16 15 13 11 10 8 7 7 7 8 9 10 13 16 17 19 21 23 25 26 27 28 29 29 29 29 31 33 34 36 37 36 37 40 44 47 49 49 42 37 37 38 40 41 41 40 38 36 35
18 17 16 16 14 13 12 11 11 10 9 9 10 10 10 12 13 16 20 20 22 24 25 27 28 28 28 29 29 30 30 31 32 34 34 35 34 35 37 41 44 47 48 45 39 36 36 37 38 39 41 41 40 38
15 14 13 12 12 12 12 12 12 12 12 13 14 14 15 17 18 21 24 24 26 27 28 29 29 29 28 29 29 30 30 30 31 33 32 33 33 33 35 37 41 43 46 46 43 38 35 35 35 36 37 39 40 41
12 11 11 11 12 13 14 15 15 16 17 18 19 19 20 21 22 24 24 24 26 27 28 29 28 28 28 29 29 28 29 29 30 31 31 31 32 31 32 34 37 40 42 44 45 42 37 34 33 33 34 36 37 39
11 12 13 14 15 16 16 17 18 18 20 21 23 25 25 27 26 25 24 25 27 29 30 30 29 27 28 29 28 27 28 29 30 29 29 30 31 30 29 31 33 36 38 41 43 43 42 38 35 32 32 33 34 35
17 18 18 18 19 20 20 21 23 24 24 25 26 26 26 27 26 26 25 24 25 27 30 30 29 27 29 29 28 27 27 29 29 28 27 29 30 29 28 28 30 32 35 37 38 41 42 42 39 36 32 31 31 31
21 21 20 20 20 19 20 21 24 22 20 19 20 21 23 24 23 20 21 26 28 29 29 29 27 29 29 28 27 26 28 28 27 26 28 31 30 28 27 27 27 28 31 33 35 37 39 41 42 41 39 35 32 30
20 21 22 23 23 21 17 14 17 17 16 18 19 20 20 21 22 26 29 28 27 27 28 28 29 29 27 27 26 26 28 26 25 27 32 32 30 28 27 26 26 26 27 30 33 35 36 38 40 41 41 40 38 34
19 14 13 14 16 17 19 17 16 19 22 21 21 22 24 25 25 26 28 27 26 25 26 27 27 26 25 24 25 26 26 25 26 31 34 32 29 27 26 26 26 25 26 27 29 32 34 35 36 38 40 41 40 39
Wind_Direction
181 183 183 185 192 196 200 192 177 177 175 188 194 196 193 198 202 213 216 218 227 231 237 236 246 248 248 255 263 266 273 265 265 269 275 279 279 282 284 283 285 286 287 290 291 295 296 296 296 299 300 302 302 305
176 179 178 183 198 196 187 182 181 166 172 182 187 188 199 198 203 210 217 228 220 229 242 244 242 250 250 256 253 268 273 271 279 275 274 278 280 281 280 284 286 287 291 292 294 295 296 296 299 300 300 301 302 302
175 176 178 186 194 196 188 179 178 165 169 180 185 188 190 197 200 211 212 217 229 237 237 233 240 247 254 255 263 258 268 275 278 277 278 276 275 277 283 286 287 289 291 294 294 295 295 299 301 298 299 299 296 295
174 177 182 188 194 194 180 175 173 168 169 179 183 186 184 190 194 198 208 219 223 217 229 238 241 240 236 242 251 264 273 275 276 273 272 276 278 281 285 287 288 290 292 294 297 297 299 299 297 296 295 294 292 290
172 179 186 191 187 186 174 175 169 171 175 177 186 190 187 183 189 192 200 208 213 223 232 237 242 245 248 253 259 259 268 270 271 267 272 276 282 287 288 288 288 292 296 299 298 298 299 298 296 296 296 295 291 289
186 186 184 179 178 186 178 171 169 167 171 181 193 198 197 204 196 197 201 216 214 221 222 233 229 237 247 253 255 260 262 262 268 273 280 285 287 289 289 292 294 299 301 299 299 298 299 296 297 294 292 289 287 287
187 180 175 177 178 175 166 159 164 168 174 182 182 182 193 198 201 207 209 213 218 221 221 231 244 250 257 241 247 255 263 268 275 281 284 286 285 288 294 296 302 300 301 300 301 302 301 298 297 294 292 291 289 286
171 171 173 175 168 165 162 160 158 153 156 165 172 179 183 190 193 199 205 217 222 227 231 245 243 236 239 246 253 260 268 276 281 282 283 287 293 295 297 299 300 303 303 303 303 304 303 301 300 299 297 294 291 289
161 165 165 163 160 159 158 159 158 160 162 163 172 174 180 185 196 203 210 219 221 213 209 212 227 235 243 253 263 272 275 277 280 286 291 294 293 298 303 301 303 305 306 306 306 307 309 308 307 305 303 299 296 292
150 150 154 154 153 157 156 163 158 144 156 162 170 173 175 179 165 166 168 175 187 200 214 223 231 239 253 265 269 271 275 282 286 287 290 295 300 303 304 308 309 310 311 310 311 312 311 309 307 305 302 299 294 291
144 147 145 145 146 147 148 146 152 158 166 175 175 173 161 164 168 170 176 185 201 211 213 227 242 252 256 263 271 276 278 281 289 292 294 300 305 308 311 311 311 310 311 315 315 315 315 313 309 304 297 291 288 285
149 149 146 142 155 155 154 157 158 162 166 170 173 165 157 165 169 168 172 193 211 225 235 244 250 259 266 268 268 273 283 289 293 301 305 308 311 310 311 311 315 318 319 318 319 320 320 316 311 305 299 292 285 281
154 149 149 139 144 144 146 144 149 155 158 160 160 154 160 171 188 201 218 219 224 226 238 253 256 260 266 268 271 283 289 296 304 308 307 309 313 319 323 323 322 322 323 324 324 322 319 315 310 305 300 296 292 287
144 137 133 138 141 142 142 146 153 156 153 153 170 182 186 201 204 205 205 210 212 230 240 244 247 253 266 276 287 292 300 303 303 309 319 327 330 330 329 328 328 328 327 326 325 322 318 314 309 303 299 297 295 292
129 147 141 142 151 157 156 155 156 165 177 179 179 191 194 189 188 195 210 215 214 223 230 239 245 252 266 272 277 292 306 314 325 331 334 335 335 335 335 334 333 331 329 328 325 322 319 316 311 307 303 299 298 295
143 133 135 142 144 150 156 165 169 173 166 156 177 180 191 190 201 200 190 198 202 192 192 195 193 204 227 269 312 324 326 330 335 340 339 338 336 336 335 334 333 332 330 328 325 324 323 321 318 315 311 307 304 301
136 141 142 136 143 144 142 152 157 167 173 175 184 185 180 185 172 173 184 180 155 155 157 167 177 222 324 341 338 339 341 343 343 341 337 334 334 334 334 335 333 331 331 329 329 328 328 327 327 327 325 323 320 317
128 140 146 156 156 154 155 160 166 174 170 167 166 170 172 166 154 149 150 155 150 143 138 140 35 7 358 353 347 343 342 341 337 332 331 332 333 334 334 334 334 334 334 333 333 332 333 333 332 330 330 330 330 330
138 143 145 144 149 151 153 155 154 154 156 161 164 156 156 156 147 142 138 134 127 103 48 19 3 357 350 342 339 336 334 332 330 328 329 330 332 333 333 336 336 337 337 338 338 338 338 338 338 338 338 339 340 341
139 144 148 151 150 150 149 152 150 155 155 153 151 155 150 137 130 120 109 95 64 32 360 351 342 335 331 330 331 330 328 326 326 326 327 328 331 334 336 338 339 340 340 342 344 346 344 344 347 347 348 350 352 353
141 143 145 146 144 143 146 149 149 146 147 144 142 133 124 113 108 96 73 47 8 342 331 323 321 322 325 327 325 323 322 324 324 325 327 328 331 335 337 339 341 343 344 347 351 354 352 351 354 355 355 355 356 359
141 141 142 142 144 145 146 148 148 147 142 134 125 119 110 101 86 50 345 325 314 312 309 311 313 315 316 316 316 318 319 321 322 324 327 330 332 335 339 341 345 347 348 351 357 0 0 359 358 359 359 358 358 357
143 144 146 147 148 144 142 138 137 131 128 130 135 144 149 165 238 277 284 291 296 301 302 304 306 307 309 311 313 315 317 318 320 324 328 331 333 337 340 344 348 351 351 353 359 5 7 5 4 3 2 360 357 355
148 149 148 144 141 142 139 140 142 148 157 163 172 189 224 249 268 280 286 289 293 296 298 301 304 306 307 307 309 313 316 318 321 324 327 331 334 337 341 345 350 354 354 354 357 3 7 10 9 6 4 4 3 1
148 148 147 147 149 152 156 162 168 176 187 199 216 232 248 264 273 280 283 289 291 293 295 297 300 303 304 304 308 311 315 318 321 323 326 330 333 337 342 346 352 356 358 356 354 358 2 7 11 12 10 6 2 360
159 160 163 164 168 174 182 191 200 207 217 230 243 255 265 273 280 282 285 290 291 293 295 296 299 303 306 306 307 309 313 316 320 322 325 329 332 336 342 347 351 357 1 1 357 356 358 2 5 9 12 11 8 4
173 178 182 189 198 207 217 226 232 238 245 253 261 268 274 278 281 282 287 291 293 294 296 298 302 304 304 305 306 308 311 316 319 321 325 328 331 334 340 346 350 356 2 4 3 358 355 357 0 3 7 10 11 11
190 195 204 212 221 229 239 246 253 258 260 264 269 272 276 278 278 281 283 284 284 287 289 293 297 300 301 301 304 308 311 314 317 320 323 327 329 331 337 343 349 354 0 6 7 5 359 355 355 358 1 4 6 9
218 223 230 237 243 249 255 260 263 266 270 272 273 274 277 279 283 285 285 284 286 288 290 292 293 295 295 298 303 306 310 314 317 318 321 325 327 328 333 340 345 351 356 3 8 9 8 3 356 354 355 358 1 5
241 247 252 254 257 259 260 264 268 270 275 276 277 278 280 282 283 283 284 284 290 294 294 294 294 292 293 297 299 303 309 314 313 314 319 324 325 325 328 333 339 346 352 358 5 9 11 11 7 1 355 353 355 359
253 255 256 258 260 262 264 268 271 273 274 277 282 284 284 284 284 280 282 289 295 295 295 295 293 290 294 296 297 302 310 311 311 312 317 325 323 321 322 326 332 339 346 351 357 4 9 11 12 10 7 1 355 353
251 258 264 265 264 263 258 247 267 271 273 281 283 284 286 285 284 289 290 293 294 293 293 293 290 291 292 293 296 303 308 306 306 310 318 321 319 318 318 320 326 331 338 344 350 356 3 8 11 12 12 10 7 0
242 241 262 251 227 243 269 263 257 271 280 280 279 283 286 289 291 290 291 294 293 290 289 290 291 291 291 293 298 303 303 302 304 312 316 317 315 313 314 316 319 325 330 336 342 348 354 0 6 9 11 13 12 10